Regional Weather Roundup
Issued by NWS

Home | Current Version | Previous Version | Text Only | Print | Product List | Glossary On
Versions: 1 2 3 4 5 6 7 8 9 10 11 12 13 14 15 16 17 18 19 20 21 22 23 24 25 26 27 28 29 30 31 32 33 34 35 36 37 38 39 40 41 42 43 44 45 46 47 48 49 50
000
ASUS43 KBIS 181110
RWRND

NORTH DAKOTA REGIONAL WEATHER ROUNDUP
NATIONAL WEATHER SERVICE BISMARCK ND
500 AM CST THU JAN 18 2018

NOTE: "FAIR" INDICATES FEW OR NO CLOUDS BELOW 12,000 FEET WITH NO
SIGNIFICANT WEATHER AND/OR OBSTRUCTIONS TO VISIBILITY.


NDZ001>003-009>011-017-181200-
NORTHWEST NORTH DAKOTA

CITY           SKY/WX    TMP DP  RH WIND       PRES   REMARKS
WILLISTON      MOCLDY    20  15  81 S5        29.82F WCI  13
MINOT          CLOUDY    27  18  69 SW15      29.77F WCI  15
MINOT AFB      CLOUDY    23  16  74 W13       29.76F WCI  11
$$

NDZ018>021-031>035-040>046-181200-
SOUTHWEST NORTH DAKOTA

CITY           SKY/WX    TMP DP  RH WIND       PRES   REMARKS
BISMARCK       CLEAR     21  16  81 W7        29.85F WCI  12
DICKINSON      MOCLDY    31  19  61 W15       29.81F
GARRISON         N/A     21  15  78 CALM      29.81F
HETTINGER ARPT MOCLDY    24  16  71 W9        29.87F WCI  14
$$

NDZ004>008-012>016-024-026-027-054-181200-
NORTHEAST NORTH DAKOTA

CITY           SKY/WX    TMP DP  RH WIND       PRES   REMARKS
GRAND FORKS    FAIR      30  22  72 W15       29.75F WCI  19
GRND FRKS AFB  FAIR      29  20  68 W13       29.75F WCI  19
DEVILS LAKE    FAIR      22  17  81 W14       29.77F WCI   9
$$

NDZ022-023-025-028>030-036>039-047>053-181200-
SOUTHEAST NORTH DAKOTA

CITY           SKY/WX    TMP DP  RH WIND       PRES   REMARKS
FARGO          FAIR      30  23  75 W15       29.80F WCI  19
JAMESTOWN      CLOUDY    29  20  69 W5        29.80F
$$




USA.gov is the U.S. government's official web portal to all federal, state and local government web resources and services.